National Weather Service Raw Text Product

Displaying AFOS PIL: RWRLUB Received: 2018-06-18 20:00 UTC


713 
ASUS44 KLUB 182001
RWRLUB
WEST TEXAS WEATHER ROUNDUP
NATIONAL WEATHER SERVICE LUBBOCK TX
300 PM CDT MON JUN 18 2018

NOTE: "FAIR" INDICATES FEW OR NO CLOUDS BELOW 12,000 FEET WITH NO
SIGNIFICANT WEATHER AND/OR OBSTRUCTIONS TO VISIBILITY.

TXZ004-006>008-010-012-014-016-OKZ002-182100-
TEXAS PANHANDLE/OKLAHOMA PANHANDLE
  
CITY           SKY/WX    TMP DP  RH WIND       PRES   REMARKS
AMARILLO       SUNNY     91  52  26 S13G21    30.02F                  
BORGER         SUNNY     92  58  31 S12       29.98F                  
CANADIAN       MOSUNNY   92  70  48 S10G16    29.96F HX  97           
DALHART        SUNNY     89  51  27 S16       30.03F                  
DUMAS          SUNNY     89  56  32 S13       30.01F                  
GUYMON         SUNNY     90  62  39 S14       29.95F                  
HEREFORD       SUNNY     92  48  21 S14       30.04F                  
PAMPA          MOSUNNY   89  65  44 S18       30.02F                  
PERRYTON       SUNNY     90  67  45 S14G21    29.97F                  
$$

TXZ026-029-035-045-048-182100-
SOUTHERN PANHANDLE/SOUTH PLAINS/ROLLING PLAINS
  
CITY           SKY/WX    TMP DP  RH WIND       PRES   REMARKS
CHILDRESS      MOSUNNY   90  68  48 W12       29.95F                  
SEMINOLE       SUNNY     91  57  31 E3        30.02F                  
LUBBOCK        MOSUNNY   90  62  39 SE9G17    30.01F                  
PLAINVIEW      MOSUNNY   86  60  41 SE6       30.01F                  
SNYDER         PTSUNNY   91  66  42 E21G30    29.99R                  
$$

TXZ052-054-060>062-072-078-127-140-154-169-182100-
PERMIAN BASIN/CONCHO VALLEY/BIG COUNTRY/EDWARDS PLATEAU  
  
CITY           SKY/WX    TMP DP  RH WIND       PRES   REMARKS
ABILENE        MOSUNNY   91  68  46 E15       29.95F HX  95           
BIG SPRING     CLOUDY    92  64  38 E14       29.98F                  
BRADY          PTSUNNY   88  66  48 SE13G20   29.96F                  
JUNCTION       SUNNY     93  68  43 NE16G24   29.93F HX  97           
MIDLAND        SUNNY     90  66  45 S9G17     29.98F                  
ODESSA         LGT RAIN  89  63  41 CALM      29.99F                  
SAN ANGELO     MOSUNNY   96  67  38 E10       29.92F HX 100           
SONORA         SUNNY     91  64  40 SE12      29.97F                  
SWEETWATER     MOSUNNY   76  68  77 E7        30.01F                  
$$

TXZ055-058-074-075-080-082-182100-
FAR WEST/SOUTHWEST MOUNTAINS/TRANS PECOS
  
CITY           SKY/WX    TMP DP  RH WIND       PRES   REMARKS
ALPINE         MOSUNNY   87  52  30 NE12G17   30.13F                  
EL PASO        MOSUNNY   93  44  18 CALM      30.01F                  
FORT STOCKTON  SUNNY     89  61  38 E8        29.99F                  
GUADALUPE PASS SUNNY     91  42  18 SW9G21    30.15F                  
MARFA          MOSUNNY   86  54  33 NE8       30.12F                  
PECOS          SUNNY     92  62  35 E10       29.96F                  
PRESIDIO       FAIR      95  51  21 E5        29.97F                  
$$

TXZ014-016-019-021>030-083-182100
TEXAS TECH WEST TEXAS MESONET/TEXAS PANHANDLE/NORTHERN SOUTH PLAINS
  
CITY           SKY/WX    TMP DP  RH WIND       PRES   REMARKS
ABERNATHY 5ENE   N/A     89  62  40 SE8       30.04F                  
AMARILLO 9NNE    N/A     90  58  34 S8        30.01F                  
AMARILLO 7SSE    N/A     90  52  27 S9        30.05F                  
AMHERST 1NE      N/A     91  50  25 S8        30.04F                  
BOOTLEG 11WNW    N/A     87  48  25 SE15      30.10F                  
CANADIAN 6E      N/A     92  69  46 S12       29.96F HX  97           
CAPROCK CYN SP   N/A     89  66  46 SE8       30.00F                  
CHILDRESS 2NNE   N/A     89  67  47 SE8       29.96F                  
CLARENDON 2WSW   N/A     89  64  44 SE10      30.02F                  
CLAUDE 12SW      N/A     88  60  38 SE10G16   30.04F                  
DIMMITT 2NE      N/A     89  49  25 S8        30.06F                  
FLOYDADA 2NNE    N/A     89  63  41 SE8       30.02F                  
FRIONA 2NE       N/A     89  49  25 S10       30.06F                  
GOODLETT 3W      N/A     95  64  36 E13G18    29.93F HX  96           
HART 3N          N/A     87  53  30 SE7       30.05F                  
HEREFORD 2NW     N/A     89  46  21 SE9       30.06F                  
MCLEAN 1E        N/A     86  64  47 SE13G21   30.01F                  
MEMPHIS 1NE      N/A     89  70  52 E9        29.98F                  
MULESHOE 2SSW    N/A     91  47  22 S10G20    30.04F                  
OLTON 6S         N/A     90  51  26 S9G16     30.04F                  
PALO DURO SP     N/A     89  58  35 S10       30.04F                  
PAMPA 2E         N/A     88  66  48 SE15      30.03F                  
PLAINVIEW 1S     N/A     88  61  39 SE7       30.03F                  
SILVERTON 7ESE   N/A     90  60  36 S8        30.01F                  
TULIA 2ENE       N/A     88  62  41 S7        30.05F                  
TURKEY 2WSW      N/A     90  69  51 E10       29.99F                  
UMBARGER 3NNE    N/A     90  51  25 S14       30.05F                  
$$

TXZ033>036-039>041-045>048-182100
TEXAS TECH WEST TEXAS MESONET/SOUTH PLAINS  
  
CITY           SKY/WX    TMP DP  RH WIND       PRES   REMARKS
AIKEN 3WSW       N/A     90  64  42 S8        30.04F                  
ANDREWS 2NE      N/A     90  56  32 E7        30.03F                  
ANTON 6SSW       N/A     89  61  39 SE6       30.03F                  
BROWNFIELD 2S    N/A     88  62  41 SE8       30.03F                  
DENVR CTY 7WNW   N/A     89  52  27 SE9       30.04F                  
GAIL 2ESE        N/A     92  60  34 SE8G16    29.97F                  
LAMESA 2SE       N/A     88  67  50 SW5       30.01F                  
LUBBOCK 3WNW     N/A     89  61  38 S6G14     30.03F                  
MORTON 1ENE      N/A     91  51  25 S10G16    30.04F                  
ODONNELL 1N      N/A     89  62  40 S8        30.01F                  
PLAINS 3N        N/A     89  52  28 SE10G21   30.05F                  
RALLS 1SE        N/A     89  59  35 E8        30.03F                  
REESE CENTER     N/A     88  58  35 SE12      30.04F                  
SEAGRAVES 1SW    N/A     91  56  31 E10       30.03F                  
SEMINOLE 2NNE    N/A     91  56  31 S8        30.02F                  
SLATON 2NE       N/A     89  61  39 S10       30.02F                  
SNYDER 3E        N/A     84  62  47 E32G43    29.99R                  
SUNDOWN 8SW      N/A     91  54  29 S10G18    30.04F                  
TAHOKA 3NNE      N/A     90  62  39 S12       30.02F                  
WOLFFORTH 6SSW   N/A     88  62  40 SE8       30.04F                  
$$

TXZ031-032-036>038-042>044-182100-
TEXAS TECH WEST TEXAS MESONET/ROLLING PLAINS 
  
CITY           SKY/WX    TMP DP  RH WIND       PRES   REMARKS
ASPERMONT 3NE    N/A     92  68  44 E8G15     29.94F HX  96           
FLUVANNA 3WNW    N/A     91  57  31 SE8G14    29.99F                  
GRAHAM 5SSW      N/A     89  61  39 E5        29.99F                  
GUTHRIE 10WSW    N/A     93  64  38 S8        29.94F                  
HASKELL 1NW      N/A     91  64  40 E9G16     29.94F                  
JAYTON 1SSE      N/A     92  67  42 SE8       29.94F HX  95           
KNOX CITY 3NW    N/A     96  68  40 SE10      29.93F HX 101           
LK A HENRY 1NW   N/A     96  62  32 S10       29.96F HX  97           
NORTHFIELD 1S    N/A     91  67  45 E5G14     29.96F                  
ODELL 4ENE       N/A     94  69  43 SE15      29.95F HX  99           
PADUCAH 10SW     N/A     94  65  37 SE9G17    29.95F HX  97           
POST 1NE         N/A     92  60  34 SW5       29.97F                  
RRING SPRGS 3N   N/A     91  66  43 S8        29.99F                  
SEYMOUR 3NW      N/A     95  66  38 E14G20    29.94F HX  98           
SPUR 1W          N/A     90  63  40 SE6       29.97F                  
WEINERT 2NNE     N/A     94  69  44 SE8       29.94F HX  99           
WHITE RVR 6NE    N/A     91  62  38 S5G10     29.99F                  
$$

TXZ052-054-060>062-072-078-127-140-154-169-182100-
TEXAS TECH WEST TEXAS MESONET/PERMIAN BASIN/
CONCHO VALLEY/BIG COUNTRY/EDWARDS PLATEAU
  
CITY           SKY/WX    TMP DP  RH WIND       PRES   REMARKS
COYANOSA 2N      N/A     92  64  39 E3        29.97F                  
JUNCTION 1SSW    N/A     92  68  45 NE12      29.94F HX  97           
MERTZON 3NNE     N/A     93  64  38 E7        29.96F                  
SAN ANGELO 7NW   N/A     94  63  35 E9G16     29.95F HX  95           
STRLNG CT 4WSW   N/A     88  65  47 N14       29.98S                  
ST LAWRNCE 5SW   N/A     90  62  39 NE14      29.97F                  
SWEETWATR 11SW   N/A     86  68  54 E14       30.01F                  
WALL 1E          N/A     94  67  41 E16       29.96F HX  97           
$$

TXZ055-058-074-075-080-082-182100-
TEXAS TECH WEST TEXAS MESONET/FAR WEST/SOUTHWEST MOUNTAINS/TRANS PECOS
  
CITY           SKY/WX    TMP DP  RH WIND       PRES   REMARKS
PRSMN GAP BBNP   N/A     91  62  37 NE3       29.98F                  
GUADLPE MTN NP   N/A     86  42  21 SE6       30.17F                  
$$